Powrót do katalogu

STARLINK-30473

AktywnyŁącznośćVLEO
NORAD 57893·PAYLOAD·🇺🇸 United States

Wystrzelony Sep 20, 2023 z Cape Canaveral Space Force Station

Loading…

Następne Przeloty (najbliższe 24 godziny)

TLE

ŚwieżeSource: CelesTrak SupGP

Epoka: Sep 15, 2026, 02:46 UTC

1 57893C 23146C   26258.11576389  .00046431  00000+0  16813-2 0  2587
2 57893  43.0031 324.5230 0001770 273.1520 124.0379 15.27562130    18

Śledź STARLINK-30473 w czasie rzeczywistym z AllMySat

Download on the App Store